Regional Weather Roundup
Issued by NWS Glasgow, MT

Current Version | Previous Version | Text Only | Print | Product List | Glossary On
Versions: 1 2 3 4 5 6 7 8 9 10 11 12 13 14 15 16 17 18 19 20 21 22 23 24 25 26 27 28 29 30 31 32 33 34 35 36 37 38 39 40 41 42 43 44 45 46 47 48 49 50
638 ASUS45 KGGW 190115 RWRGGW HOURLY REGIONAL WEATHER ROUNDUP FOR NORTHEAST MONTANA NATIONAL WEATHER SERVICE GLASGOW MONTANA 700 PM MDT SUN APR 18 2021 NOTE: "FAIR" INDICATES FEW OR NO CLOUDS BELOW 12,000 FEET WITH NO SIGNIFICANT WEATHER AND/OR OBSTRUCTIONS TO VISISBILITY. NORTHEAST MONTANA CITY SKY/WX TMP DP RH WIND PRES REMARKS GLASGOW CLOUDY 39 20 46 N15 30.26R PLENTYWOOD N/A 34 16 47 N10G25 N/A WOLF POINT CLOUDY 39 17 41 N14 30.27R JORDAN N/A 35 32 88 N16 30.24R WINNETT N/A 33 32 96 N18 N/A SIDNEY CLOUDY 37 18 46 N16 30.22R GLENDIVE CLOUDY 39 19 44 N14 30.20R FORT PECK REPORTS CITY SKY/WX TMP DP RH WIND PRES REMARKS FORT PECK N/A 37 21 52 N14 N/A THE PINES N/A 38 27 64 NW5 N/A SOUTHEAST MONTANA CITY SKY/WX TMP DP RH WIND PRES REMARKS BILLINGS LGT RAIN 37 31 78 NE23G33 30.15R MILES CITY CLOUDY 35 31 85 NE16 30.18R BAKER LGT SNOW 34 32 92 N8 30.15R FOG LIVINGSTON LGT RAIN 44 34 67 E16G29 30.11R CENTRAL MONTANA CITY SKY/WX TMP DP RH WIND PRES REMARKS HAVRE LGT SNOW 33 32 96 NE9 30.36R FOG LEWISTOWN LGT SNOW 30 28 92 N10 30.23R FOG GREAT FALLS SNOW 31 30 96 NE12 30.31R VSB 1/4 CUT BANK LGT SNOW 28 27 96 NE14 30.37R VSB 3/4 HELENA LGT SNOW 37 28 70 NW16G25 30.24R BUTTE PTSUNNY 46 28 49 NE25G35 30.04R BOZEMAN PTSUNNY 50 28 42 N22 30.06R WESTERN MONTANA CITY SKY/WX TMP DP RH WIND PRES REMARKS MISSOULA PTSUNNY 69 24 18 W17 29.95F KALISPELL NOT AVBL NORTH DAKOTA CITY SKY/WX TMP DP RH WIND PRES REMARKS WILLISTON MOCLDY 34 16 47 N18G32 30.21S DICKINSON CLOUDY 36 18 48 NE16G23 30.12R MINOT CLOUDY 33 19 56 N21G28 30.18R BISMARCK MOCLDY 36 17 46 N15 30.15S SOUTHERN SASKATCHEWAN CITY SKY/WX TMP DP RH WIND PRES REMARKS REGINA MOCLDY 34 16 47 N21G28 30.27 ESTEVAN MOCLDY 32 18 55 N17G23 30.22S SWIFT CURRENT CLOUDY 36 12 38 N15G24 30.28R

USA.gov is the U.S. government's official web portal to all federal, state and local government web resources and services.